This demonstration page uses our WeatherBlox Daily Observations layout. Learn more.

Left ArrowRight Arrow

Hourly Observations for March 26, 2020

Temp ( °F °C ) Dew Point ( °F °C ) Humidity (%) Winds ( mph kmh ) Pressure ( in mb ) Visibility ( mi km ) Precip ( " mm )
12:15 am 00:15 Clear 50 10 46 8 88 88 S 7 11 29.91 1013 10 16 N/A
12:35 am 00:35 Clear 50 10 46 8 88 88 S 7 11 29.90 1013 10 16 N/A
12:56 am 00:56 Clear 48 9 45 7 87 87 S 6 9 29.90 1013 10 16 N/A
1:15 am 01:15 Clear 48 9 46 8 94 94 S 8 13 29.90 1013 10 16 N/A
1:35 am 01:35 Clear 48 9 46 8 94 94 S 6 9 29.92 1013 10 16 N/A
1:55 am 01:55 Clear 48 9 46 8 94 94 S 7 11 29.91 1013 10 16 N/A
2:15 am 02:15 Clear 48 9 46 8 94 94 S 7 11 29.91 1013 10 16 N/A
2:36 am 02:36 Clear 46 8 46 8 100 100 S 8 13 29.91 1013 10 16 N/A
2:55 am 02:55 Clear 48 9 46 8 94 94 S 7 11 29.91 1013 10 16 N/A
3:15 am 03:15 Clear 48 9 46 8 94 94 S 7 11 29.90 1013 10 16 N/A
3:35 am 03:35 Clear 46 8 46 8 100 100 S 7 11 29.90 1012 10 16 N/A
3:56 am 03:56 Clear 46 8 46 8 100 100 S 8 13 29.90 1012 10 16 N/A
4:15 am 04:15 Clear 46 8 46 8 100 100 S 7 11 29.90 1012 10 16 N/A
4:36 am 04:36 Clear 46 8 46 8 100 100 SSW 8 13 29.90 1012 10 16 N/A
4:55 am 04:55 Clear 45 7 45 7 100 100 S 6 9 29.90 1013 10 16 N/A
5:15 am 05:15 Clear 45 7 45 7 100 100 S 6 9 29.90 1013 10 16 N/A
5:35 am 05:35 Clear 45 7 45 7 100 100 S 6 9 29.90 1013 10 16 N/A
5:55 am 05:55 Clear 43 6 43 6 100 100 S 6 9 29.90 1013 10 16 N/A
6:16 am 06:16 Clear 43 6 43 6 100 100 S 6 9 29.90 1013 10 16 N/A
6:36 am 06:36 Clear 43 6 43 6 100 100 S 7 11 29.90 1013 10 16 N/A
6:56 am 06:56 Clear 43 6 43 6 100 100 S 6 9 29.89 1012 10 16 N/A
7:15 am 07:15 Clear 43 6 43 6 100 100 S 6 9 29.90 1013 10 16 N/A
7:35 am 07:35 Clear 43 6 43 6 100 100 S 8 13 29.89 1012 10 16 N/A
7:55 am 07:55 Sunny 45 7 45 7 100 100 S 9 15 29.88 1012 10 16 N/A
8:16 am 08:16 Sunny 45 7 45 7 100 100 S 7 11 29.89 1012 10 16 N/A
8:35 am 08:35 Sunny 45 7 45 7 100 100 N N/A 29.91 1013 10 16 N/A
8:55 am 08:55 Sunny 46 8 46 8 100 100 N N/A 29.91 1013 10 16 N/A
9:15 am 09:15 Sunny 48 9 48 9 100 100 N N/A 29.90 1013 10 16 N/A
9:36 am 09:36 Sunny 50 10 50 10 100 100 S 6 9 29.90 1013 10 16 N/A
9:55 am 09:55 Sunny 52 11 50 10 94 94 SSW 6 9 29.90 1012 10 16 N/A
10:15 am 10:15 Sunny 54 12 52 11 94 94 SSW 7 11 29.89 1012 10 16 N/A
10:36 am 10:36 Sunny 54 12 52 11 94 94 SSW 7 11 29.90 1013 10 16 N/A
10:56 am 10:56 Sunny 55 13 52 11 88 88 SW 9 15 29.91 1013 10 16 N/A
11:15 am 11:15 Partly Cloudy 57 14 54 12 88 88 SW 13 20 29.91 1013 10 16 N/A
11:16 am 11:16 Partly Cloudy 57 14 54 12 88 88 SW 12 19 29.91 1013 10 16 N/A
11:36 am 11:36 Partly Cloudy 59 15 54 12 82 82 SW 8 13 29.89 1012 10 16 N/A
11:55 am 11:55 Sunny 59 15 54 12 82 82 S 6 9 29.87 1012 10 16 N/A
12:16 pm 12:16 Sunny 61 16 54 12 77 77 SSW 7 11 29.87 1012 10 16 N/A
12:35 pm 12:35 Sunny 61 16 55 13 83 83 S 6 9 29.85 1011 10 16 N/A
12:36 pm 12:36 Sunny 61 16 55 13 83 83 S 6 9 29.85 1011 10 16 N/A
12:55 pm 12:55 Sunny 61 16 55 13 83 83 S 8 13 29.85 1011 10 16 N/A
1:15 pm 13:15 Partly Cloudy 61 16 55 13 83 83 S 9 15 29.83 1010 10 16 N/A
1:35 pm 13:35 Mostly Cloudy 59 15 55 13 88 88 SSE 9 15 29.81 1010 10 16 N/A
1:55 pm 13:55 Cloudy 59 15 55 13 88 88 S 12 19 29.81 1010 10 16 N/A
2:16 pm 14:16 Cloudy 59 15 55 13 88 88 SSE 13 20 29.77 1008 10 16 N/A
2:36 pm 14:36 Mostly Cloudy 59 15 55 13 88 88 SSE 10 17 29.76 1008 10 16 N/A
2:55 pm 14:55 Mostly Cloudy 61 16 55 13 83 83 S 12 19 29.75 1007 10 16 N/A
3:15 pm 15:15 Partly Cloudy 63 17 55 13 77 77 S 10 17 29.75 1007 10 16 N/A
3:35 pm 15:35 Partly Cloudy 63 17 57 14 83 83 SSE 9 15 29.74 1007 10 16 N/A
3:55 pm 15:55 Mostly Cloudy 63 17 57 14 83 83 S 8 13 29.75 1007 10 16 N/A
4:15 pm 16:15 Partly Cloudy 64 18 57 14 78 78 SSE 10 17 29.72 1007 10 16 N/A
4:35 pm 16:35 Mostly Cloudy 64 18 57 14 78 78 SSE 8 13 29.70 1006 10 16 N/A
4:55 pm 16:55 Cloudy 63 17 59 15 88 88 S 8 13 29.72 1006 10 16 N/A
5:15 pm 17:15 Cloudy 63 17 59 15 88 88 SE 3 6 29.71 1006 10 16 N/A
5:35 pm 17:35 Cloudy 63 17 59 15 88 88 SE 5 7 29.70 1006 10 16 N/A
5:56 pm 17:56 Cloudy 63 17 59 15 88 88 N N/A 29.71 1006 10 16 N/A
6:15 pm 18:15 Cloudy 61 16 59 15 94 94 N N/A 29.71 1006 10 16 N/A
6:35 pm 18:35 Cloudy 61 16 59 15 94 94 N N/A 29.73 1007 10 16 N/A
6:55 pm 18:55 Cloudy 59 15 59 15 100 100 N 12 19 29.74 1007 5 8 N/A
7:15 pm 19:15 Cloudy 55 13 55 13 100 100 NNE 10 17 29.74 1007 7 11 N/A
7:35 pm 19:35 Cloudy 55 13 55 13 100 100 NE 12 19 29.75 1007 7 11 N/A
7:55 pm 19:55 Cloudy 55 13 55 13 100 100 NE 10 17 29.74 1007 7 11 N/A
8:15 pm 20:15 Cloudy 55 13 55 13 100 100 NE 12 19 29.74 1007 5 8 N/A
8:35 pm 20:35 Cloudy 55 13 55 13 100 100 NNE 12 19 29.74 1007 7 11 N/A
8:55 pm 20:55 Cloudy 54 12 54 12 100 100 NNE 9 15 29.75 1008 7 11 N/A
9:15 pm 21:15 Cloudy 54 12 54 12 100 100 NE 10 17 29.75 1008 7 11 N/A
9:35 pm 21:35 Cloudy 54 12 54 12 100 100 NE 9 15 29.75 1008 7 11 N/A
9:56 pm 21:56 Cloudy 54 12 54 12 100 100 N 9 15 29.78 1009 7 11 N/A
10:15 pm 22:15 Cloudy 54 12 54 12 100 100 NNE 9 15 29.77 1008 7 11 N/A
10:36 pm 22:36 Cloudy 54 12 54 12 100 100 N 7 11 29.79 1009 10 16 N/A
10:56 pm 22:56 Cloudy 54 12 54 12 100 100 NE 6 9 29.79 1009 10 16 N/A
11:16 pm 23:16 Cloudy 54 12 54 12 100 100 N 10 17 29.82 1010 10 16 N/A
11:35 pm 23:35 Cloudy 54 12 54 12 100 100 NNE 9 15 29.81 1010 10 16 N/A
11:56 pm 23:56 Cloudy 54 12 54 12 100 100 ENE 9 15 29.81 1010 10 16 N/A

Powered by AerisWeather